Location: breval
(48.9474°N, 1.5319°E)
Time: 22:16:45
(UTC+00:00)

Tiangong 2 - Visible Passes

Search period start: 21 May 2018 00:00
Search period end: 31 May 2018 00:00
Orbit: 382 x 385 km, 42.8° (Epoch: 21 May)

Date Brightness Start Highest point End Pass type
(mag) Time Alt. Az. Time Alt. Az. Time Alt. Az.
21 May 3.5 20:57:31 10° S 20:57:34 10° S 20:57:34 10° S visible
22 May 3.0 21:32:57 10° SW 21:34:03 16° SSW 21:34:03 16° SSW visible
23 May 2.8 20:33:43 10° SSW 20:35:51 17° SSE 20:37:44 11° ESE visible
23 May 3.4 22:09:19 10° WSW 22:09:58 14° SW 22:09:58 14° SW visible
24 May 2.2 21:09:44 10° SW 21:12:23 25° S 21:13:17 21° SE visible
25 May 2.3 21:46:17 10° WSW 21:48:33 25° SSW 21:48:33 25° SSW visible
26 May 2.2 20:46:36 10° WSW 20:49:18 26° S 20:51:28 13° SE visible
26 May 3.5 22:23:12 10° WSW 22:23:40 12° WSW 22:23:40 12° WSW visible
27 May 2.4 21:23:19 10° WSW 21:25:52 23° S 21:26:29 21° S visible
28 May 2.3 20:23:32 10° WSW 20:26:12 26° S 20:28:54 10° SE visible
28 May 3.4 22:00:32 10° WSW 22:01:26 13° SW 22:01:26 13° SW visible
29 May 2.8 21:00:25 10° WSW 21:02:44 19° SSW 21:04:10 14° SSE visible
30 May 3.6 21:38:52 10° SSW 21:39:04 10° SSW 21:39:04 10° SSW visible
